Location: Unspecified
(49.2170°N, 0.0000°E)
Time: 04:36:17
(UTC+00:00)

Transit 4A - Pass Details

Date: 17 June 2019
Orbit: 862 x 982 km, 66.8° (Epoch: 20 July)

Event Time Altitude Azimuth Distance (km) Brightness Sun altitude
Rises 08:14:25 0° 174° (S) 3,600 11.1 39.1°
Reaches altitude 10° 08:17:18 10° 162° (SSE) 2,678 10.7 39.5°
Maximum altitude 08:22:23 27° 108° (ESE) 1,781 11.4 40.4°
Drops below altitude 10° 08:27:34 10° 54° (NE) 2,736 11.0 41.2°
Sets 08:30:32 0° 43° (NE) 3,695 11.3 41.7°
